[[{"header":{"parameterUnit":"m.s-1","parameterCategory":1,"la1":30.2992,"la2":30.254,"lo1":-89.0895,"lo2":-89.0443,"dy":0.0025,"dx":0.0025,"nx":19,"ny":19,"refTime":"2026-04-05T21:00:00:Z","depth":0,"parameterNumber":2,"parameterNumberName":"U-component_of_WINDS"},"data":[0,0,0,-3.7514,-3.7517,-3.7671,-3.7672,-3.7886,-3.7888,0,0,0,0,0,0,0,0,0,0,0,-3.748,-3.7482,-3.7513,-3.7518,-3.7671,-3.7672,-3.7886,-3.7888,0,0,0,0,0,0,0,0,0,0,0,-3.7479,-3.7481,-3.7484,-3.7518,-3.7671,-3.7672,-3.7886,-3.7763,0,0,0,0,0,0,0,0,0,0,-3.761,-3.7591,-3.7481,-3.7484,-3.7519,-3.7671,-3.7672,-3.7757,-3.7771,-3.7825,0,-3.7877,0,-3.7886,-3.7904,-3.7905,0,0,0,-3.7509,-3.758,-3.761,-3.7484,-3.7521,-3.7671,-3.7599,-3.7764,-3.778,-3.7843,-3.788,-3.7887,-3.789,-3.7906,-3.7907,-3.8249,-3.8251,0,0,-3.75,-3.7514,-3.76,-3.7621,-3.7599,-3.7594,-3.7604,-3.7773,-3.7814,-3.788,-3.7892,-3.7893,-3.7907,-3.7909,-3.8248,-3.825,0,0,0,-3.7482,-3.7509,-3.7535,-3.7613,-3.7639,-3.7599,-3.761,-3.7806,-3.7814,-3.7894,-3.7896,-3.7908,-3.7911,-3.8245,-3.8248,-3.8362,0,0,0,-3.7476,-3.7498,-3.7531,-3.7542,-3.7637,-3.7725,-3.764,-3.7802,-3.7821,-3.7895,-3.7909,-3.7914,-3.8243,-3.8247,-3.8354,-3.8414,0,0,0,-3.7466,-3.7496,-3.7523,-3.7542,-3.7608,-3.7722,-3.7739,-3.7806,-3.7822,-3.7905,-3.7914,-3.8242,-3.8246,-3.8347,-3.8402,-3.8508,0,0,0,-3.7459,-3.7622,-3.7525,-3.7707,-3.7607,-3.7791,-3.7737,-3.7873,-3.7958,-3.791,-3.8243,-3.8248,-3.8345,-3.8395,-3.85,-3.86,-3.8643,0,0,-3.7673,-3.7648,-3.7755,-3.7672,-3.7876,-3.7766,-3.7987,-3.8051,-3.8046,-3.8182,-3.819,-3.8357,-3.8401,-3.8506,-3.8875,-3.8909,0,0,0,-3.7827,-3.7904,-3.7955,-3.8036,-3.8088,-3.8138,-3.8166,-3.819,-3.8304,-3.8119,-3.8423,-3.8449,-3.851,-3.8557,-3.8586,-3.8637,-3.827,-3.827,-3.8269,-3.8151,-3.8135,-3.8309,-3.8311,-3.839,-3.8417,-3.8479,-3.8515,-3.8477,-3.8548,-3.8589,-3.8815,-3.887,-3.8892,-3.8946,-3.864,-3.864,-3.864,-3.8641,-3.8463,-3.8568,-3.8511,-3.866,-3.8642,-3.8766,-3.8797,-3.8765,-3.8878,-3.8783,-3.8836,-3.8735,-3.893,-3.8976,-3.8649,-3.8648,-3.8647,-3.8646,-3.8645,-3.8674,-3.8721,-3.8746,-3.886,-3.895,-3.8945,-3.9056,-3.9035,-3.9016,-3.9068,-3.9108,-3.9106,-3.9102,-3.9089,-3.9089,-3.909,-3.9091,-3.9091,-3.9092,-3.8883,-3.8907,-3.9003,-3.9071,-3.9119,-3.918,-3.9207,-3.9253,-3.93,-3.9276,-3.9276,-3.923,-3.8952,-3.8882,-3.9104,-3.9102,-3.91,-3.9099,-3.9098,-3.9207,-3.913,-3.9278,-3.9326,-3.9403,-3.9493,-3.9463,-3.956,-3.9595,-3.965,-3.9592,-3.9389,-3.9363,-3.934,-3.9283,-3.9595,-3.9595,-3.9595,-3.9595,-3.9385,-3.9369,-3.9515,-3.9593,-3.9667,-3.9656,-3.9822,-3.9844,-3.9854,-3.9874,-3.9826,-3.9747,-3.9725,-3.9712,-3.9681,-3.9627,-4.002,-4.002,-4.002,-3.9583,-3.9573,-3.972,-3.9729,-3.9786,-3.9836,-3.9992,-4.0083,-4.0079,-4.0037,-3.989,-3.9872,-3.9745,-3.9705,-3.9662,-3.9614,-3.9515,0,0]},{"header":{"parameterUnit":"m.s-1","parameterCategory":1,"la1":30.2992,"la2":30.254,"lo1":-89.0895,"lo2":-89.0443,"dy":0.0025,"dx":0.0025,"nx":19,"ny":19,"refTime":"2026-04-05T21:00:00:Z","depth":0,"parameterNumber":3,"parameterNumberName":"V-component_of_WINDS"},"data":[0,0,0,-4.9437,-4.9439,-4.9505,-4.9506,-4.9608,-4.9609,0,0,0,0,0,0,0,0,0,0,0,-4.943,-4.9432,-4.9437,-4.9439,-4.9505,-4.9506,-4.9608,-4.9609,0,0,0,0,0,0,0,0,0,0,0,-4.943,-4.9431,-4.9433,-4.944,-4.9505,-4.9506,-4.9608,-4.9551,0,0,0,0,0,0,0,0,0,0,-4.9484,-4.949,-4.9431,-4.9433,-4.944,-4.9505,-4.9506,-4.9548,-4.9555,-4.9586,0,-4.9619,0,-4.9616,-4.9618,-4.9618,0,0,0,-4.943,-4.9485,-4.9491,-4.9433,-4.9441,-4.9505,-4.9473,-4.9552,-4.9559,-4.9595,-4.9621,-4.9624,-4.9618,-4.9618,-4.9619,-4.9834,-4.9836,0,0,-4.9426,-4.9449,-4.9486,-4.9496,-4.9489,-4.9471,-4.9475,-4.9556,-4.9585,-4.9621,-4.9626,-4.962,-4.9619,-4.962,-4.9833,-4.9835,0,0,0,-4.9422,-4.9447,-4.9451,-4.9493,-4.9503,-4.9473,-4.9478,-4.9581,-4.958,-4.9627,-4.9621,-4.962,-4.9621,-4.9831,-4.9834,-4.9926,0,0,0,-4.9419,-4.9445,-4.945,-4.9465,-4.9502,-4.9543,-4.9502,-4.9575,-4.9583,-4.962,-4.962,-4.9623,-4.983,-4.9832,-4.992,-4.9966,0,0,0,-4.9422,-4.9445,-4.9459,-4.9466,-4.9495,-4.9542,-4.9545,-4.9576,-4.958,-4.9618,-4.9623,-4.9829,-4.9832,-4.9915,-4.9957,-5.0027,0,0,0,-4.9431,-4.9542,-4.9461,-4.9581,-4.9495,-4.9599,-4.9544,-4.9621,-4.9665,-4.962,-4.983,-4.9833,-4.9913,-4.9951,-5.0021,-5.0089,-5.012,0,0,-4.9583,-4.9561,-4.963,-4.9559,-4.9684,-4.9587,-4.9724,-4.9743,-4.9726,-4.9799,-4.9804,-4.9922,-4.9956,-5.0026,-5.0288,-5.0312,0,0,0,-4.9686,-4.9736,-4.9764,-4.9806,-4.9823,-4.9839,-4.9835,-4.9841,-4.9901,-4.9769,-4.9966,-4.9986,-5.0026,-5.0057,-5.0078,-5.0109,-4.9849,-4.9849,-4.9849,-4.9935,-4.9906,-5.0017,-4.9995,-5.0036,-5.0029,-5.0059,-5.0066,-5.0026,-5.0073,-5.0094,-5.0256,-5.0294,-5.0309,-5.0343,-5.0129,-5.0129,-5.0129,-5.013,-5.0154,-5.0218,-5.016,-5.0246,-5.0214,-5.0286,-5.0282,-5.025,-5.0311,-5.0239,-5.0273,-5.0194,-5.0337,-5.0365,-5.0136,-5.0135,-5.0134,-5.0134,-5.0133,-5.0312,-5.0338,-5.0343,-5.0398,-5.0444,-5.0418,-5.0478,-5.0447,-5.0418,-5.0452,-5.0469,-5.0467,-5.046,-5.0462,-5.0463,-5.0463,-5.0464,-5.0464,-5.0465,-5.0474,-5.0477,-5.0532,-5.0556,-5.0577,-5.06,-5.0591,-5.0611,-5.0625,-5.0597,-5.0597,-5.055,-5.0358,-5.0308,-5.0473,-5.0472,-5.047,-5.047,-5.0469,-5.0705,-5.0647,-5.0732,-5.0752,-5.0776,-5.0821,-5.078,-5.0822,-5.0834,-5.0864,-5.081,-5.0673,-5.0648,-5.0631,-5.059,-5.0817,-5.0817,-5.0817,-5.0817,-5.0837,-5.0821,-5.0898,-5.0933,-5.0963,-5.0933,-5.1027,-5.102,-5.1004,-5.1009,-5.0971,-5.0915,-5.0899,-5.0883,-5.0861,-5.0822,-5.1104,-5.1104,-5.1104,-5.0976,-5.096,-5.1047,-5.1029,-5.1044,-5.1057,-5.1144,-5.1184,-5.1154,-5.1115,-5.1011,-5.0999,-5.0908,-5.088,-5.0838,-5.0804,-5.0732,0,0]}]]